Location: Bamobli
(6.6379°N, 10.9396°W)
Time: 21:13:12
(UTC+00:00)

ADEOS - Pass Details

Date: 07 June 2020
Orbit: 793 x 794 km, 98.9° (Epoch: 06 July)

Event Time Altitude Azimuth Distance (km) Brightness Sun altitude
Rises 04:50:54 0° 5° (N) 3,279 7.2 -22.6°
Reaches altitude 10° 04:53:15 10° 1° (N) 2,351 6.4 -22.1°
Maximum altitude 04:58:20 56° 283° (WNW) 936 3.6 -21.0°
Enters shadow 04:59:46 42° 232° (SW) 1,121 3.8 -20.7°
